RH
13 12 11 10 10 9 10 9 10 10 9 9 8 8 7 8 8 8 8 8 9 8 8 8 8 8 7 8 7 7 7 7 8 7 8 8 7 7 6 7 7 7 7 7 7 8 9 9 9 9 11 14 16 17 14 28 51 69 96 100 96 104 102 95 69 52 74 62 44 81 105 99 100 98 100 103 100 98 77 48 33 26 27 32 32 31 36 42
18 16 15 13 12 10 10 9 9 9 9 9 9 9 8 8 8 8 8 8 8 8 8 9 8 9 7 7 8 7 7 7 8 8 8 8 7 7 6 7 7 7 7 7 7 7 9 10 10 9 10 15 17 17 18 27 43 65 95 101 98 102 101 100 75 67 80 53 53 94 101 100 104 96 98 102 99 103 90 53 29 28 28 32 33 34 38 39
21 20 19 18 16 14 13 11 10 10 9 9 9 9 9 8 8 8 8 8 8 8 8 9 8 9 8 7 7 7 7 7 7 8 7 8 8 7 6 7 7 7 7 7 8 8 9 10 10 10 10 15 18 17 21 31 35 55 88 96 99 103 102 99 78 79 79 43 63 104 99 101 104 95 98 102 98 101 96 57 30 30 29 30 31 31 39 42
20 19 19 18 18 18 16 15 13 12 10 9 9 9 9 8 8 8 8 8 7 8 8 8 9 8 9 8 7 8 8 7 7 7 7 8 8 7 6 6 7 7 7 8 8 8 9 11 10 10 11 14 18 17 21 33 35 50 81 92 99 102 95 88 69 73 75 50 67 99 101 101 100 99 100 102 100 101 98 67 37 34 35 30 25 27 34 43
21 19 19 17 17 17 17 17 16 15 13 12 10 9 10 9 9 8 8 8 7 8 8 8 9 8 9 8 8 7 7 8 7 7 7 8 8 8 7 6 7 7 9 9 9 9 9 11 11 10 11 13 18 18 18 27 33 48 76 92 101 97 87 77 57 57 70 75 81 88 99 101 97 100 101 102 100 99 100 83 58 51 47 32 24 27 31 40
22 21 20 19 17 17 16 16 15 15 15 14 13 11 10 10 10 9 8 8 8 8 8 8 8 8 9 9 9 7 7 10 8 7 7 8 9 9 8 6 7 8 10 11 9 10 10 11 12 10 11 13 18 18 17 21 30 52 77 98 105 92 83 72 57 52 58 80 86 81 96 102 98 100 100 102 100 98 100 97 85 70 53 33 26 30 33 39
23 22 21 19 18 18 16 16 15 14 14 13 14 13 12 11 10 10 9 9 8 8 8 8 8 8 9 8 9 8 8 9 7 6 7 8 8 9 9 6 7 8 9 12 11 10 10 11 12 11 10 13 17 18 20 20 24 43 68 95 102 89 83 71 61 53 48 66 73 76 97 100 97 101 101 101 100 101 99 99 97 79 50 30 28 32 35 38
22 21 21 20 19 18 16 16 15 14 13 12 12 13 13 13 11 10 10 10 9 8 8 7 7 8 8 8 9 8 8 9 7 7 7 7 8 10 9 7 7 8 9 12 13 11 10 11 11 12 9 11 17 18 21 22 20 28 53 81 81 82 90 72 62 55 48 60 66 81 101 101 99 99 100 101 98 100 100 99 102 88 54 32 31 33 36 37
20 19 18 18 18 17 16 15 15 14 13 13 12 11 11 12 12 11 10 10 10 10 9 8 7 7 8 8 8 8 9 9 7 8 8 7 8 10 10 8 7 8 9 12 15 13 11 11 12 12 9 11 19 24 21 19 20 22 46 71 64 80 97 72 58 50 43 54 73 91 89 89 101 100 100 102 99 99 100 98 101 91 57 36 33 33 36 35
23 22 20 18 17 16 15 14 14 14 13 13 12 11 11 10 11 12 11 11 10 10 10 9 8 7 7 8 8 8 10 9 7 9 9 7 8 9 10 9 7 8 9 12 18 16 13 12 12 13 10 12 21 30 27 20 21 16 35 66 59 65 80 63 52 49 44 52 83 102 79 77 99 103 102 102 99 100 100 99 100 87 54 38 37 34 35 32
27 25 23 21 19 17 15 14 13 13 13 13 12 12 11 11 10 10 11 11 11 10 10 10 9 8 7 7 8 9 10 9 8 9 9 8 8 8 10 10 8 8 8 12 19 20 17 14 15 16 12 13 18 26 30 23 21 15 26 58 63 66 75 60 46 48 46 47 81 106 90 90 103 102 103 100 99 101 100 98 99 89 58 42 41 36 33 31
28 26 24 22 21 19 17 15 13 13 13 13 12 12 12 11 10 9 10 11 11 10 10 11 10 9 8 7 7 9 10 9 8 8 9 9 8 8 9 11 9 8 9 11 18 23 22 19 20 20 14 13 15 21 32 28 21 17 22 44 64 84 93 65 38 41 43 45 76 101 98 100 102 102 102 99 100 101 100 99 100 96 72 55 52 45 36 32
27 24 22 21 20 19 18 16 15 14 13 13 12 12 12 11 11 10 9 10 11 11 10 10 11 10 9 8 7 9 10 9 9 8 9 9 8 8 8 11 10 8 9 10 16 25 27 26 25 25 20 13 13 20 34 36 27 22 25 36 47 69 84 61 32 32 35 40 63 83 92 96 96 100 102 99 99 97 98 100 99 98 89 76 66 59 48 37
25 23 21 20 19 18 18 17 16 15 14 13 12 12 12 12 11 10 9 9 10 11 11 10 10 11 10 9 8 10 10 8 9 9 9 10 9 9 8 10 11 9 9 9 14 25 30 32 30 30 25 16 16 21 29 35 31 27 30 35 38 47 58 45 27 26 25 34 62 81 90 98 96 96 100 101 98 95 97 100 100 99 99 92 82 77 63 38
23 22 20 19 18 17 17 16 16 15 14 14 13 13 12 12 12 11 10 9 9 11 12 11 10 10 11 10 10 10 9 8 9 9 9 10 10 10 8 9 12 10 9 9 12 21 32 34 32 34 30 21 19 19 23 30 33 32 31 35 39 38 40 32 25 26 24 32 67 92 98 100 95 89 96 101 97 98 99 100 101 100 100 101 97 86 60 33
22 21 20 19 18 16 16 15 15 14 14 14 13 13 13 13 12 11 10 9 9 10 11 12 10 10 10 11 11 10 9 9 9 9 9 10 11 11 10 8 11 12 10 10 11 18 29 33 33 36 33 27 21 16 19 27 34 36 32 35 40 36 33 27 21 26 28 32 55 85 92 81 75 84 97 101 98 101 103 101 99 97 100 102 93 70 42 30
21 21 20 19 18 17 16 15 14 14 13 13 14 14 14 13 13 12 11 10 10 9 11 12 12 10 10 10 13 12 9 9 8 9 9 9 11 11 11 9 9 13 12 10 11 15 24 31 34 36 33 31 24 16 20 28 38 40 36 38 40 38 34 26 22 24 26 27 40 69 78 56 48 74 99 104 100 100 102 100 98 97 102 101 85 61 41 34
21 20 20 19 18 17 16 15 14 13 13 14 14 14 14 14 13 13 11 10 10 10 10 12 12 11 10 10 12 11 9 9 8 9 9 9 10 11 12 11 9 12 13 11 10 12 20 29 36 36 33 34 27 20 26 34 40 42 40 42 41 40 37 31 29 28 25 24 33 56 70 60 52 65 87 100 102 102 100 97 98 100 101 101 91 75 59 44
22 21 21 20 19 16 15 14 13 14 14 15 15 15 15 14 14 13 12 12 10 10 11 11 13 12 11 11 11 11 10 9 8 8 10 9 10 11 12 12 10 10 12 12 11 11 16 25 35 36 35 38 34 30 34 36 38 39 39 42 41 41 40 35 32 32 29 27 36 46 58 75 86 87 87 92 99 103 101 96 95 97 98 101 100 95 81 56
24 23 23 22 19 15 13 13 13 14 15 16 16 16 15 14 14 14 13 13 12 11 12 12 12 12 12 12 11 11 11 11 11 9 9 10 10 11 12 13 12 10 12 13 11 10 13 19 29 35 37 39 38 38 37 34 35 35 35 37 39 41 43 39 36 35 30 24 29 39 49 64 85 99 98 95 101 103 100 97 95 97 100 101 100 102 93 68
27 26 26 24 18 14 13 13 13 15 16 17 18 18 17 15 14 14 13 13 13 13 13 12 12 12 13 13 11 10 11 12 12 10 9 10 10 10 11 13 13 11 11 12 12 11 11 15 23 30 36 37 36 37 37 35 36 35 35 36 36 40 42 41 40 39 38 30 26 40 55 61 71 87 98 98 92 88 91 97 99 99 101 99 99 102 98 81
29 28 28 23 18 14 14 14 15 16 17 18 19 20 20 19 17 16 15 14 13 14 14 14 13 13 12 13 13 12 13 14 12 11 10 11 11 10 10 12 14 14 12 12 12 12 11 12 17 24 32 34 32 35 36 35 38 39 40 40 39 41 40 40 41 39 43 36 25 31 42 55 71 79 93 100 84 72 74 82 95 102 102 100 100 102 99 94
30 30 28 22 17 16 16 16 17 17 19 20 22 22 23 24 22 19 17 16 15 15 15 15 14 14 13 13 15 14 14 15 14 13 11 11 11 11 11 11 14 15 13 12 12 13 14 12 13 18 26 31 29 32 37 36 39 41 41 42 42 42 39 40 41 38 42 38 27 26 23 40 72 82 85 85 68 53 44 57 91 105 102 100 99 100 100 101
32 33 28 21 18 18 19 19 21 21 23 25 26 27 26 27 27 25 22 18 17 17 16 16 16 15 14 13 15 16 14 13 13 13 12 11 11 11 11 11 12 15 14 13 12 13 16 14 13 14 19 26 28 30 35 36 39 41 40 42 42 41 41 42 40 37 40 41 33 29 21 25 53 75 77 67 53 40 31 63 105 98 86 96 100 98 98 102
35 34 27 22 21 21 22 25 28 29 29 29 30 30 28 28 28 27 26 22 20 19 17 17 16 15 16 15 17 17 15 15 13 13 13 11 10 11 11 11 11 14 15 14 14 14 16 17 14 13 14 20 25 29 32 34 38 40 39 41 40 40 40 39 38 38 38 40 35 31 31 27 29 46 63 67 56 40 38 72 97 77 73 98 103 99 99 102
38 34 26 23 23 24 29 33 36 35 34 33 30 27 25 25 25 25 25 23 21 20 18 18 16 16 18 18 17 15 15 16 15 15 16 13 11 10 10 11 11 12 14 15 15 14 15 19 17 14 13 15 20 25 28 31 35 38 39 39 39 39 39 36 37 40 37 37 36 31 35 38 30 30 53 75 69 58 60 68 70 62 78 107 103 96 102 98
39 32 26 26 26 30 38 41 40 38 36 32 28 25 22 20 20 21 22 22 21 19 19 19 16 16 19 18 17 17 16 15 14 17 18 15 12 11 11 11 11 11 13 15 17 16 15 19 19 16 14 13 16 20 24 29 32 34 37 37 38 36 36 36 36 38 36 36 37 33 31 33 33 29 41 65 71 75 77 69 73 78 89 108 96 91 105 86
38 30 27 28 30 39 45 44 41 37 32 28 23 21 18 16 15 16 18 19 19 18 18 18 17 17 18 18 21 20 17 14 15 18 19 16 14 13 11 11 11 10 12 15 18 18 16 17 20 20 18 14 13 15 19 25 28 30 34 35 37 36 35 37 37 37 37 36 35 34 32 29 31 30 30 41 48 61 78 81 92 97 90 96 92 96 105 71
37 30 28 30 37 47 48 45 40 33 27 23 19 16 14 13 13 12 14 15 16 17 18 18 17 18 18 19 21 18 15 15 16 18 18 16 15 15 12 11 12 10 10 14 17 20 18 15 17 19 19 17 15 13 15 20 24 27 31 32 34 35 36 37 36 36 36 37 35 34 34 31 30 30 29 36 35 45 73 79 82 95 98 101 99 98 92 62
35 30 30 36 45 52 50 44 37 30 24 19 16 14 12 12 11 11 11 11 13 15 18 19 18 19 19 19 19 16 16 17 15 17 18 16 15 16 14 11 12 11 11 13 16 20 18 14 15 15 19 24 20 13 13 16 19 23 26 29 31 33 35 35 35 36 35 35 36 35 36 33 32 31 28 32 32 32 45 44 43 68 86 85 74 69 66 47
35 31 34 45 54 56 50 43 35 27 22 18 16 13 11 10 9 9 9 9 11 12 14 18 19 20 20 19 18 18 20 17 13 17 18 17 17 16 15 12 12 13 12 14 16 19 18 15 16 15 22 36 30 16 13 15 15 18 22 24 28 30 31 33 34 36 36 35 36 35 36 34 32 34 29 28 30 27 29 27 26 40 54 56 45 40 42 30
35 31 40 56 61 57 51 43 34 27 22 18 16 13 10 10 9 9 9 9 10 10 12 15 18 20 21 21 20 19 21 17 14 19 19 18 20 19 17 15 13 12 14 16 17 19 19 18 19 16 22 38 37 21 15 15 13 14 18 20 23 26 28 31 32 34 36 36 37 36 35 35 33 34 33 30 30 27 27 27 24 27 34 39 35 30 29 23
35 33 48 65 65 59 53 43 34 27 22 19 16 12 10 11 11 10 10 9 9 9 10 12 14 18 21 23 24 21 19 17 18 21 20 20 22 22 22 20 16 13 13 16 19 20 18 18 22 20 19 28 32 25 19 17 14 13 15 17 19 23 24 27 28 31 33 35 38 37 34 34 34 34 35 33 32 31 32 29 26 29 32 31 29 27 25 22
36 37 56 71 66 61 55 45 36 27 23 22 17 13 12 12 12 11 11 10 10 9 9 10 12 15 19 22 25 23 20 19 22 24 23 22 23 25 26 24 20 17 14 14 18 20 17 16 22 23 20 21 24 30 30 23 17 14 13 15 17 19 21 24 25 27 29 31 34 36 35 35 34 33 33 34 33 32 32 30 26 29 33 33 32 32 32 29
38 44 66 74 66 63 57 46 37 29 25 24 19 15 13 12 12 13 12 11 11 10 10 10 10 12 15 19 23 24 23 21 24 28 26 23 24 27 28 27 26 24 17 14 16 17 14 15 21 23 22 19 19 28 36 35 28 19 15 15 16 17 18 20 22 23 25 27 30 31 34 38 38 35 33 35 38 34 30 30 29 29 30 31 34 35 34 30
45 55 71 75 68 65 59 46 37 32 29 28 22 17 15 13 13 14 13 12 11 11 11 10 10 11 12 16 19 23 25 23 24 29 29 26 24 25 25 25 27 26 19 16 16 15 12 14 20 23 23 21 19 21 29 43 46 33 20 17 15 16 16 16 19 21 22 24 27 28 29 35 38 36 34 37 40 37 32 30 30 31 30 29 30 32 33 31
58 73 81 80 73 67 57 45 39 35 33 33 26 18 15 14 13 14 13 13 12 11 11 10 10 10 10 13 16 19 23 24 26 30 30 27 23 21 21 21 23 22 18 19 20 17 14 15 17 21 22 22 22 19 21 37 50 42 31 25 21 17 15 15 16 18 20 20 22 24 25 28 32 33 33 35 37 36 36 35 33 31 31 32 30 26 32 34
72 90 88 81 76 69 57 45 41 38 37 36 26 17 17 16 14 14 13 13 13 12 12 11 11 11 10 12 14 16 20 23 29 33 32 30 26 22 23 24 25 24 21 22 22 17 16 18 17 18 20 19 21 20 18 26 35 38 35 30 26 19 14 15 16 16 18 18 19 22 24 24 25 29 31 33 36 33 33 38 39 35 30 30 33 32 36 36
83 97 90 84 82 74 58 44 40 41 41 38 27 20 20 18 16 15 13 14 14 13 13 12 11 12 11 11 12 15 18 21 28 35 35 33 31 26 24 27 31 31 27 26 25 19 16 18 18 19 18 16 19 20 20 21 24 27 32 35 40 35 22 16 15 16 18 17 17 20 25 25 20 23 27 29 34 34 31 34 37 36 32 28 29 31 35 33
90 99 91 90 89 76 58 45 42 43 43 39 30 24 22 19 17 16 15 15 16 15 14 13 12 12 12 12 12 13 17 21 26 33 34 32 32 29 27 31 38 41 38 35 33 25 19 18 18 20 20 17 19 21 22 23 21 22 31 43 55 55 42 31 23 18 18 17 17 18 24 31 28 23 24 24 28 33 34 34 32 32 31 29 27 26 27 27
94 97 91 92 91 76 57 47 45 47 46 40 31 24 21 20 19 18 18 18 18 16 15 15 14 14 12 13 13 13 16 20 24 29 30 27 27 28 28 34 44 50 50 48 44 33 23 20 17 19 22 20 21 23 23 24 21 18 23 33 48 56 51 44 39 31 22 17 16 15 18 34 42 32 23 21 24 29 35 35 32 31 28 27 27 26 26 25
97 97 93 95 92 74 57 48 46 49 49 43 34 25 22 22 20 20 20 19 20 18 16 16 16 15 13 12 13 13 14 18 22 26 27 25 25 25 27 34 46 54 55 55 51 38 26 23 20 20 23 22 22 24 22 23 22 18 18 23 35 49 51 48 47 45 39 29 22 16 14 27 39 33 20 19 20 22 27 28 30 33 29 26 25 23 25 25
102 99 95 98 92 74 60 53 49 51 51 47 38 26 23 24 21 21 22 21 22 21 18 17 16 16 16 13 13 14 14 17 20 23 26 25 23 25 27 33 41 49 53 51 46 38 30 26 22 23 27 24 20 21 22 22 22 21 21 22 26 38 48 52 52 52 53 48 34 22 17 19 22 23 22 22 22 20 21 21 23 28 26 23 23 21 22 22
102 99 96 100 94 75 65 59 55 56 52 48 43 30 24 25 23 23 24 23 24 23 20 19 17 17 17 15 15 15 15 18 19 22 26 25 23 25 28 32 37 41 49 51 46 44 43 36 25 22 29 29 23 23 25 23 23 23 22 23 25 28 36 43 45 44 48 49 36 22 20 20 16 17 20 21 21 20 20 18 18 21 22 20 20 20 21 20
100 99 96 101 95 79 71 65 61 61 54 48 47 36 27 27 25 24 25 24 25 25 23 21 20 19 18 17 17 16 16 17 19 22 25 24 24 25 26 31 36 39 46 51 52 55 54 44 32 25 28 32 29 26 28 25 24 25 23 22 25 25 26 30 34 41 50 52 41 25 20 22 20 19 17 16 18 19 19 20 20 19 18 18 18 17 18 18
100 98 95 103 98 83 78 71 65 68 60 51 49 41 31 29 27 26 26 26 26 26 26 24 22 21 19 18 18 18 17 17 17 20 24 26 27 27 26 29 35 40 44 47 52 57 52 41 37 34 34 38 35 27 27 27 24 25 25 24 25 24 24 23 24 35 50 57 52 41 34 32 27 22 20 18 19 20 20 22 24 21 18 17 17 16 15 15
102 98 96 105 99 85 83 78 72 73 66 57 53 45 35 31 30 29 27 28 28 28 28 27 25 23 21 21 19 19 20 19 17 18 20 25 29 32 32 31 34 40 43 45 49 55 55 50 45 42 40 45 45 34 30 33 28 25 26 25 24 24 25 24 22 25 36 47 51 51 52 52 42 31 26 25 25 25 23 23 24 23 21 19 18 17 16 16
103 99 99 106 98 88 89 86 80 77 71 63 58 50 38 31 32 33 30 29 29 29 29 29 28 26 24 23 21 21 22 21 21 21 19 22 27 33 37 37 37 40 41 44 48 55 67 68 57 48 43 44 45 40 37 38 33 29 28 23 20 23 24 24 25 25 26 32 38 42 49 57 56 48 42 38 34 29 27 27 28 27 24 21 20 19 17 16
103 100 101 104 97 94 97 92 86 83 75 66 61 55 44 33 31 34 34 33 31 29 30 29 29 29 26 25 25 24 24 21 22 23 21 20 24 29 36 40 42 42 42 44 47 57 75 78 65 56 48 41 42 42 38 37 33 30 29 23 20 23 24 23 25 25 23 23 26 32 38 47 56 60 58 55 50 41 33 31 32 32 30 26 23 23 21 18
103 99 102 104 98 100 105 96 91 89 80 69 63 58 49 37 32 33 34 36 35 32 31 30 30 30 29 27 28 29 29 25 22 22 21 20 22 25 32 39 43 45 45 45 45 53 69 75 70 67 61 52 50 50 46 42 38 34 30 25 23 25 25 24 24 23 22 22 24 26 28 34 47 57 60 63 65 63 52 42 37 33 32 32 31 30 27 23
103 98 104 104 94 99 106 98 96 96 83 72 66 59 51 41 35 35 34 36 38 36 33 31 30 31 31 29 30 31 30 28 25 23 21 20 20 22 27 34 40 44 46 46 46 48 56 64 70 77 76 67 62 60 57 50 44 40 33 26 27 29 27 25 24 23 22 23 25 25 22 25 34 43 50 58 68 73 68 59 50 42 34 32 33 34 31 27
103 99 105 103 89 94 105 99 98 99 86 74 68 61 53 43 38 39 37 35 38 39 38 35 31 30 31 30 31 30 29 29 27 25 25 23 20 21 24 28 34 41 46 47 47 47 48 53 60 70 76 74 71 69 60 51 47 44 37 32 32 33 30 26 23 22 22 22 23 24 23 22 23 27 35 45 57 66 66 64 63 58 50 42 36 36 35 32
Wind_Speed
25 26 27 28 29 29 30 31 32 33 35 36 38 39 39 40 41 42 42 42 42 42 42 42 42 42 41 42 42 41 41 40 41 43 44 44 45 46 49 50 51 51 49 46 45 44 42 42 44 47 46 46 44 42 41 36 35 30 24 27 21 21 28 22 21 24 20 20 18 12 10 13 14 11 12 11 7 2 3 6 9 12 14 14 17 18 21 25
24 25 27 29 30 31 32 32 33 33 34 35 37 38 39 40 41 42 43 44 44 44 43 44 44 43 43 43 43 43 42 41 41 43 44 45 44 46 50 52 53 53 51 49 46 46 44 43 46 48 49 48 47 44 42 38 37 31 27 29 22 23 30 25 24 24 21 24 20 12 13 16 13 11 12 12 9 6 4 3 7 10 11 13 16 18 20 23
22 24 25 27 29 31 33 34 35 36 36 36 37 37 39 40 41 42 43 44 45 45 45 45 45 45 45 44 45 44 44 43 42 43 44 45 44 46 50 53 55 55 53 51 49 48 47 46 48 50 51 51 49 47 44 39 38 35 31 33 26 23 31 28 26 25 23 26 21 14 17 19 14 13 13 12 12 10 6 1 4 7 8 11 15 17 20 22
23 24 24 25 26 28 31 33 36 38 39 40 39 39 39 40 41 42 43 44 46 47 47 47 47 47 47 46 46 46 46 45 44 44 44 45 45 45 49 54 57 57 56 55 53 51 50 49 49 52 53 53 52 50 47 42 42 40 33 33 28 24 30 30 28 27 26 25 22 17 17 21 17 15 13 9 9 10 6 5 1 4 6 11 14 16 18 21
27 27 27 27 27 27 28 30 33 36 39 42 43 43 42 42 42 42 43 44 46 47 48 49 49 49 48 48 48 48 47 46 46 46 45 45 46 45 48 55 59 60 59 58 56 53 52 50 50 53 54 55 54 52 51 47 44 40 35 33 30 28 31 32 31 29 28 25 24 19 15 18 18 15 12 7 8 8 6 6 2 2 5 11 14 15 17 19
31 31 31 31 31 31 31 31 32 33 36 39 43 45 47 46 45 44 44 44 46 48 49 50 51 51 50 50 50 50 48 49 50 47 46 45 46 45 47 54 60 62 62 61 59 56 54 52 51 53 55 56 56 54 52 50 45 40 36 33 31 33 33 33 33 31 30 27 24 22 16 17 18 17 13 8 10 9 8 7 3 1 5 11 13 15 16 18
37 37 36 35 35 35 35 36 36 35 35 36 39 43 47 50 50 49 47 46 46 47 49 51 52 53 53 52 52 51 50 51 51 48 47 46 46 46 47 53 60 64 65 63 61 59 56 54 53 53 56 57 57 56 53 52 50 44 38 33 31 33 34 35 34 32 32 28 25 23 17 17 18 17 13 9 11 11 9 9 4 1 6 11 13 15 15 17
41 42 42 41 41 40 40 40 40 40 39 39 39 40 44 48 52 53 52 50 48 48 49 51 53 54 55 55 54 53 52 53 53 50 49 48 46 47 48 52 59 65 67 65 63 61 58 56 54 54 57 58 57 57 55 53 52 48 40 34 34 34 34 37 35 34 33 29 27 24 19 18 18 17 14 11 12 14 11 10 7 6 9 12 13 14 15 16
43 44 44 45 45 46 46 45 44 44 43 43 42 42 43 45 49 53 56 55 52 51 50 51 53 55 56 56 56 55 53 56 56 53 52 50 48 49 49 51 57 64 68 67 65 62 60 58 55 55 56 58 58 57 57 55 54 52 44 37 38 36 34 38 37 35 34 31 28 27 24 22 21 20 16 12 14 16 15 13 13 12 13 14 14 14 14 16
43 44 45 46 47 48 49 49 49 48 48 47 46 45 46 46 47 50 55 58 58 56 53 52 53 55 57 58 58 56 55 59 58 54 55 53 51 51 50 51 55 63 69 69 67 64 61 59 57 55 56 59 61 61 60 59 57 55 49 41 41 39 35 38 38 37 36 34 30 28 29 26 24 21 15 15 17 17 16 16 18 19 18 16 14 14 14 16
44 45 46 47 48 49 50 50 50 50 51 51 49 48 47 48 49 50 52 57 61 61 58 56 54 55 57 59 59 57 58 61 60 58 58 56 54 53 52 52 54 61 69 70 69 66 63 60 58 56 59 63 66 66 63 62 61 58 54 46 43 41 38 39 40 38 36 36 32 30 30 26 22 20 16 17 18 15 17 20 22 22 20 17 15 14 14 16
45 46 46 47 48 50 51 52 51 51 51 52 53 51 50 50 51 52 53 55 60 64 64 60 58 56 57 59 60 59 61 64 62 61 60 59 57 55 53 53 54 59 67 72 70 68 65 61 60 59 62 65 67 66 63 63 62 59 56 50 45 42 39 41 41 39 37 37 35 30 29 26 21 19 19 20 20 17 19 21 21 22 20 18 16 14 15 16
47 48 48 49 49 50 51 52 52 52 51 52 53 54 53 52 52 54 55 56 59 63 66 65 62 59 58 59 59 60 64 66 64 63 62 61 59 57 56 54 54 57 65 72 72 69 66 64 63 62 63 65 66 66 66 64 63 59 57 53 49 44 40 41 42 41 39 38 38 34 29 27 22 20 20 21 22 22 22 20 19 20 20 19 16 16 17 17
49 50 51 51 51 50 50 51 52 53 52 52 53 54 55 55 54 55 57 59 59 61 66 68 67 64 61 59 59 63 67 68 66 65 65 64 62 60 58 56 55 57 64 72 74 71 69 67 66 65 64 65 67 69 70 67 63 61 59 55 51 47 44 43 42 42 41 39 39 36 30 27 24 21 20 20 21 24 27 26 22 19 18 17 17 17 18 19
50 52 52 53 52 52 51 51 51 52 52 52 54 55 56 56 56 56 58 61 62 62 65 69 70 69 66 62 60 65 68 68 68 68 67 66 64 63 60 59 57 57 62 70 75 73 72 71 69 67 67 67 69 72 71 67 65 63 61 57 53 51 49 46 44 43 43 43 41 37 32 31 28 24 23 23 22 23 25 28 26 22 19 18 18 18 20 20
52 53 54 54 54 53 51 50 50 50 51 52 54 56 57 58 57 58 59 61 64 65 65 68 72 72 71 66 63 66 68 69 70 69 69 68 67 65 63 61 59 59 61 68 75 76 75 74 71 71 70 68 70 72 70 68 66 64 62 60 57 55 52 48 46 44 44 44 44 42 39 36 32 29 29 28 25 23 22 22 25 24 22 21 20 20 21 20
53 55 56 56 55 53 51 50 49 49 50 51 54 56 58 59 59 59 60 61 65 67 67 68 71 75 74 70 69 69 69 70 72 71 72 71 69 68 66 64 62 61 62 67 75 79 78 75 73 73 71 70 70 69 68 68 66 65 64 62 59 56 53 50 48 46 45 44 44 44 41 40 38 37 36 31 26 25 22 20 22 23 22 22 21 22 22 19
56 58 59 58 56 52 50 48 47 47 49 51 53 56 58 60 60 61 61 63 65 68 69 68 71 76 76 75 74 71 68 70 72 73 73 73 72 71 69 67 65 64 64 67 74 80 79 76 75 74 72 70 68 66 67 68 68 67 65 64 62 59 55 53 50 48 47 46 44 42 41 41 40 41 42 35 28 24 22 22 22 20 21 21 21 21 20 18
61 63 64 62 57 52 48 45 45 45 47 50 53 55 57 59 61 62 63 64 65 67 70 70 70 74 77 77 76 74 70 69 72 74 75 75 74 74 73 70 68 67 67 69 74 79 80 78 77 75 73 71 68 66 68 69 70 70 68 66 64 61 57 55 53 51 50 48 46 44 44 41 34 36 42 38 32 28 24 23 21 18 21 23 21 18 16 15
67 70 70 65 58 51 46 43 42 43 46 49 52 54 56 58 60 62 63 65 66 67 70 72 71 72 77 80 79 78 72 69 72 75 76 76 76 77 75 73 72 70 69 70 73 78 81 80 79 77 75 74 71 69 70 70 72 72 71 69 67 64 60 58 56 54 52 51 49 46 46 45 39 37 40 39 35 32 30 26 22 21 22 23 21 18 16 15
74 76 74 67 58 50 44 41 40 41 43 46 50 53 55 57 59 62 64 65 66 68 70 72 71 71 75 79 80 79 76 74 75 76 77 78 79 79 78 76 75 72 71 72 74 77 80 80 80 79 78 77 75 74 73 73 72 72 71 70 68 65 63 62 59 57 54 53 53 49 46 46 45 43 42 41 38 34 33 29 26 25 22 20 19 17 16 16
79 79 75 66 57 49 43 39 38 39 41 43 46 50 53 55 58 60 63 65 66 68 70 71 72 71 72 76 79 80 79 79 77 76 79 81 81 81 80 79 78 76 75 74 74 76 78 80 81 81 81 80 78 76 75 74 71 69 69 68 67 66 65 63 61 60 57 56 57 54 50 46 45 45 44 43 41 37 34 31 30 28 23 20 19 17 16 15
82 80 73 63 54 47 41 37 36 36 37 40 43 46 50 53 57 59 62 65 67 69 70 71 72 72 71 74 79 83 84 83 81 79 80 82 84 83 82 82 80 79 78 75 74 75 77 79 82 83 83 82 80 78 77 75 71 69 68 68 68 68 66 64 63 63 61 59 60 57 55 52 47 45 45 44 43 41 38 35 33 30 25 22 22 19 16 15
83 79 69 59 52 45 40 36 33 33 35 37 40 43 47 51 55 59 62 65 67 69 70 71 72 72 72 73 77 83 87 86 85 82 81 84 86 85 84 84 83 82 80 77 76 76 77 80 83 85 85 83 82 80 79 76 72 71 70 69 70 70 68 68 68 66 63 61 62 60 59 58 54 47 45 44 44 43 42 39 35 30 26 24 22 20 18 17
82 75 65 55 48 42 37 34 32 32 33 35 38 41 45 49 53 57 61 65 67 70 71 72 73 73 72 72 74 82 86 86 86 84 83 85 86 86 87 86 86 85 83 80 78 78 79 81 83 85 85 84 84 83 81 76 74 74 73 72 72 72 71 72 70 66 65 64 63 62 61 61 59 54 49 45 43 44 45 43 37 32 29 27 26 23 21 19
80 71 60 52 45 40 35 33 32 32 33 35 38 41 44 46 50 54 59 64 67 69 70 72 73 73 72 73 76 81 85 87 87 86 85 85 85 87 89 88 88 87 86 84 82 81 80 81 83 85 85 84 86 86 82 77 77 78 77 77 76 74 74 74 70 67 68 66 64 65 63 61 60 58 53 48 45 45 45 43 39 35 32 31 29 26 24 22
76 66 56 48 42 37 34 32 32 33 35 37 39 41 43 44 46 50 54 60 64 67 70 72 73 73 74 75 76 77 83 89 90 88 87 86 85 87 89 90 90 90 88 86 84 82 82 83 84 84 84 85 87 86 81 79 82 82 80 79 78 75 74 72 68 68 68 67 66 67 65 63 61 60 57 52 48 46 44 39 36 35 35 35 32 28 27 25
72 62 52 46 40 35 33 32 32 34 36 38 39 40 41 41 42 45 50 56 60 64 68 71 72 73 74 74 74 78 84 89 89 89 89 89 87 88 91 92 92 92 90 88 86 85 85 86 84 85 85 85 86 85 83 84 86 84 81 81 78 75 73 70 67 68 68 68 69 68 66 65 64 62 60 56 53 50 44 37 34 33 35 39 36 31 31 28
68 58 50 43 38 34 33 32 33 36 37 38 37 37 37 38 38 41 46 52 56 61 66 69 71 73 74 75 77 81 83 83 86 89 91 91 90 90 92 93 94 93 92 90 89 89 89 88 86 86 85 83 84 85 86 87 87 86 83 81 79 75 74 73 71 70 69 69 69 67 67 67 66 64 62 60 58 56 50 44 41 39 38 41 39 35 35 31
64 55 47 41 37 34 32 33 35 37 38 36 34 32 32 33 34 37 42 47 51 58 64 68 71 73 75 77 78 78 77 79 85 89 92 93 92 92 93 93 93 93 92 92 91 92 92 90 86 85 83 82 85 88 88 88 89 88 85 82 80 77 77 75 73 72 71 70 69 67 68 67 66 65 65 63 61 60 58 54 53 49 46 47 45 43 41 36
60 52 44 39 36 34 33 35 38 39 38 36 32 27 25 27 29 33 37 42 48 55 61 67 71 74 76 78 77 76 76 80 84 86 90 92 92 93 93 92 93 93 92 92 92 94 93 88 85 85 84 85 87 89 89 89 90 89 86 84 82 79 79 77 72 72 72 70 69 68 68 67 66 66 66 65 63 62 61 60 59 56 53 52 51 48 45 39
57 50 42 37 35 34 34 37 40 41 40 36 30 24 21 21 23 28 32 38 43 50 57 65 71 75 77 78 77 77 79 80 80 82 87 90 91 92 91 92 94 95 95 94 94 95 93 89 87 87 88 89 89 89 89 90 91 89 87 85 82 81 81 78 74 73 73 70 70 70 70 68 66 66 66 66 65 63 62 61 60 59 57 56 53 50 47 41
55 47 40 35 34 34 36 39 43 43 41 37 29 22 17 16 19 24 29 34 39 45 52 60 68 74 78 79 80 80 79 77 77 80 85 89 91 92 91 92 95 96 98 98 97 97 97 94 91 90 91 91 90 88 88 90 90 89 88 85 83 83 83 79 76 77 77 75 74 74 74 72 69 67 66 66 65 63 62 62 60 58 57 56 54 51 48 43
52 45 38 34 33 34 37 41 45 45 42 38 31 23 16 13 15 20 25 30 35 40 46 54 64 72 78 81 83 82 79 76 76 79 82 87 90 92 93 95 96 97 99 100 99 100 100 97 94 93 92 91 89 87 87 91 91 89 88 86 84 84 83 82 81 82 82 79 78 79 76 72 69 68 67 66 65 64 64 63 61 59 57 54 53 51 48 46
49 43 36 33 33 33 37 42 45 46 44 39 32 24 17 12 11 15 20 25 30 35 41 48 58 68 76 82 84 84 81 78 78 80 83 86 90 94 96 97 96 98 101 102 102 103 102 99 96 96 96 93 91 90 91 91 89 88 89 87 85 85 84 85 85 85 84 82 81 81 77 71 69 69 69 67 66 66 65 63 61 59 58 56 54 52 49 47
45 41 35 33 33 34 37 42 45 47 45 40 34 26 18 12 10 12 17 22 27 32 37 43 52 62 71 79 84 85 84 82 81 83 85 87 91 96 100 100 100 102 103 101 101 103 102 101 100 99 98 95 92 94 94 91 89 89 89 87 86 86 86 87 87 86 85 84 84 84 79 73 72 72 71 70 68 66 66 65 62 60 59 58 57 54 49 47
42 39 35 33 33 33 37 41 44 47 45 40 34 26 19 15 12 10 14 19 24 29 35 40 47 55 64 74 81 85 86 85 83 84 87 88 91 94 97 100 102 102 101 98 99 101 101 102 103 101 99 97 96 96 94 93 94 93 90 89 89 90 90 89 89 88 88 87 86 85 80 77 77 76 74 73 71 69 66 65 63 62 60 59 58 56 52 49
38 36 34 32 32 34 37 40 43 47 46 41 36 28 22 19 15 11 11 14 20 26 32 37 42 50 58 67 76 82 86 87 86 87 89 88 88 88 90 95 97 97 98 99 101 102 102 103 102 100 101 100 99 98 96 95 97 94 91 90 90 91 90 89 89 88 87 87 87 84 80 80 81 78 76 75 74 72 69 66 65 64 64 62 60 58 55 52
35 34 33 32 33 35 37 40 42 46 47 44 39 32 26 22 17 12 10 11 15 22 28 33 39 46 53 61 70 78 84 88 90 91 92 91 90 88 88 90 93 94 98 100 102 103 104 104 100 98 101 102 101 99 96 95 95 93 90 89 88 88 88 87 87 87 85 86 87 84 81 82 82 80 79 78 75 72 70 70 69 66 66 65 64 62 59 56
32 31 31 31 33 34 37 40 42 46 47 44 38 31 26 21 17 13 10 9 12 18 23 29 35 42 48 56 64 73 81 88 93 95 97 96 94 92 89 89 91 93 97 98 100 103 104 103 100 99 100 101 100 99 96 96 96 93 91 91 90 89 88 87 86 86 86 87 88 87 83 80 81 81 81 80 76 73 73 74 73 70 69 68 67 65 63 61
31 30 29 30 32 34 36 39 42 46 48 45 38 31 25 21 16 12 10 9 11 15 20 26 32 39 46 53 60 68 78 88 94 98 99 96 95 93 90 90 92 94 96 97 99 103 104 103 101 100 100 100 99 99 99 98 97 95 94 94 94 93 92 90 88 87 87 87 90 91 86 79 78 80 82 81 78 76 77 77 74 73 72 70 69 67 66 65
29 28 28 29 32 33 35 38 41 45 48 46 40 32 26 22 16 11 9 8 10 14 18 24 29 36 43 50 56 64 74 84 93 97 99 96 94 92 91 92 94 96 98 99 101 105 105 103 102 100 101 103 103 102 100 98 96 96 94 93 94 94 94 93 91 90 88 87 90 92 89 85 82 82 83 82 80 79 80 79 76 74 73 72 71 70 68 67
27 27 27 29 31 33 35 38 41 45 48 47 42 34 28 23 17 11 8 8 9 12 16 21 26 32 39 46 53 59 67 77 88 94 97 95 93 91 91 93 96 98 100 102 104 105 103 101 102 100 99 102 103 100 97 97 97 96 94 93 94 95 96 96 96 95 92 91 92 93 91 90 88 86 84 81 79 81 83 81 78 76 75 74 73 72 71 69
26 26 26 28 31 33 35 38 41 44 46 46 42 36 29 24 18 12 8 7 8 11 14 18 23 29 36 42 49 56 63 71 81 90 95 95 92 91 92 93 95 97 98 100 101 99 96 97 102 102 98 98 98 96 95 98 98 97 97 97 96 97 99 100 99 97 95 94 96 95 92 90 89 88 85 81 80 81 83 81 79 77 76 76 75 73 71 70
24 25 25 27 30 33 35 37 40 43 46 46 42 36 31 26 20 13 8 6 7 9 12 16 20 26 33 39 46 53 60 67 76 85 92 94 92 91 92 93 94 96 96 98 97 95 95 98 101 102 99 97 97 97 98 100 99 99 100 100 99 100 101 100 98 95 92 94 97 96 93 91 88 88 87 84 82 82 82 81 79 78 77 76 75 74 72 71
23 24 25 27 30 33 34 36 39 42 46 46 43 37 31 26 22 15 9 6 6 8 11 14 18 23 29 35 42 49 55 63 71 80 87 92 92 91 91 91 93 95 96 96 95 94 97 100 101 100 97 95 97 100 101 100 101 100 100 100 101 101 100 100 98 95 93 96 98 96 93 90 89 88 87 86 84 83 83 82 80 78 78 77 76 75 73 72
23 23 24 26 29 32 33 35 38 41 44 46 44 39 31 25 22 18 11 6 5 6 9 12 16 20 25 31 37 43 49 57 65 73 81 88 92 93 92 92 93 94 95 95 94 94 95 97 98 99 97 95 97 101 100 99 99 100 100 103 104 101 100 99 96 95 96 99 100 97 92 90 90 89 88 86 86 85 84 83 81 79 78 77 76 75 74 73
22 23 24 25 28 31 33 35 37 40 43 45 44 41 34 26 21 18 14 9 4 5 8 11 14 17 21 26 32 39 45 52 57 64 72 82 89 94 95 94 93 94 94 93 93 92 92 95 97 99 100 99 99 101 101 100 100 101 103 107 106 102 102 99 95 96 98 100 100 98 95 92 90 90 88 86 87 88 87 85 83 80 79 79 78 76 76 75
20 22 23 25 27 30 32 34 36 39 42 44 42 40 35 28 22 17 15 12 7 4 6 9 12 16 19 22 27 34 41 48 52 57 66 75 84 92 96 96 95 94 93 92 92 92 93 96 97 97 99 100 99 99 100 102 102 102 104 105 102 99 100 99 98 99 101 100 99 98 96 94 93 92 90 88 88 88 88 87 85 83 82 81 79 78 77 76
19 21 23 24 26 29 31 32 35 38 41 43 41 38 34 29 24 18 14 12 10 6 4 7 11 14 17 21 25 30 35 42 48 54 61 68 76 86 93 97 97 95 94 93 93 93 95 95 94 94 95 96 95 96 98 100 102 103 103 102 99 98 99 100 101 103 102 99 97 96 97 96 94 94 93 91 90 89 89 89 88 87 85 83 81 79 78 77
18 19 21 23 24 27 29 31 33 37 40 42 41 37 32 28 24 20 15 12 10 8 5 5 9 12 16 19 23 27 31 36 43 49 56 62 69 78 88 95 99 98 96 94 93 94 95 94 93 93 94 95 96 96 98 101 102 103 103 101 98 99 101 102 103 104 102 100 98 98 99 98 96 96 95 93 93 93 92 91 90 89 88 85 83 81 80 79
18 18 20 22 24 25 28 30 32 35 39 41 40 36 31 26 22 20 17 13 10 8 7 4 6 10 14 17 21 25 28 32 37 43 49 56 63 70 80 90 96 98 98 97 95 95 94 93 93 94 94 95 96 98 100 101 101 102 103 101 99 101 103 104 105 104 103 103 101 100 100 99 98 97 97 95 94 95 94 93 92 90 89 87 86 84 82 81
Wind_Direction
290 286 282 279 276 273 271 268 267 264 262 259 255 252 248 246 245 243 241 238 236 234 233 232 231 229 229 230 230 228 223 218 216 216 215 213 212 211 210 209 208 208 207 206 206 205 205 203 200 197 193 191 191 191 190 190 189 190 201 199 200 215 208 207 203 199 203 198 198 201 209 215 213 214 222 231 230 243 337 19 27 19 18 21 17 9 5 3
298 293 287 282 278 275 272 270 268 266 264 262 259 255 251 247 244 243 242 240 237 234 232 231 231 229 228 228 230 229 226 221 217 216 216 213 211 211 210 209 208 207 207 206 206 205 205 203 201 198 194 191 191 191 191 191 189 192 201 196 199 211 205 205 203 199 201 196 193 189 192 196 203 216 219 226 227 241 284 16 27 16 18 20 17 10 4 1
304 300 295 289 284 279 276 272 269 267 265 263 261 258 255 251 246 242 240 239 238 235 233 231 230 229 228 227 228 229 228 224 219 217 216 213 211 211 209 208 208 207 206 205 205 205 204 203 201 198 194 191 191 191 190 190 192 194 199 197 199 206 205 207 201 196 197 196 192 184 186 194 211 226 219 215 221 243 255 153 19 4 13 14 11 6 1 359
305 302 299 295 291 286 281 276 272 268 265 263 262 260 258 254 250 245 241 238 237 236 233 231 229 228 228 227 226 228 228 226 222 218 215 214 211 210 209 208 207 207 206 205 205 204 204 203 202 199 195 192 191 191 190 190 194 196 197 197 200 202 203 207 203 196 196 198 196 188 190 200 211 222 221 223 234 247 230 190 345 358 360 2 1 357 356 355
305 302 300 297 294 291 286 282 276 271 267 263 261 259 258 256 253 249 244 239 236 235 233 231 229 227 226 226 226 226 227 227 224 219 215 214 212 210 209 208 206 207 206 205 205 204 204 204 202 200 196 193 192 192 191 191 193 196 196 196 199 200 200 205 206 202 199 201 201 195 196 202 206 213 221 229 225 218 180 183 262 341 344 353 356 353 350 349
301 298 295 293 292 289 287 284 280 276 271 266 261 258 255 255 254 251 247 243 238 235 233 231 229 227 225 225 225 225 225 226 225 220 216 215 213 211 209 208 206 206 206 206 205 203 204 204 203 201 198 194 193 193 193 192 193 195 197 197 199 200 201 204 206 207 204 204 203 195 199 206 207 212 218 218 213 205 170 178 230 288 340 348 351 350 348 345
301 298 293 290 286 284 282 281 279 277 274 270 265 260 255 252 252 251 250 246 241 237 233 231 229 228 226 224 224 224 223 225 226 222 218 215 214 213 210 209 207 206 206 206 206 204 203 203 203 202 199 196 195 195 194 194 195 196 197 199 200 199 201 203 204 209 208 209 205 197 199 203 204 212 214 210 216 226 204 187 201 308 340 341 341 344 342 340
302 299 295 290 286 282 278 275 274 272 271 269 266 263 259 254 250 248 248 248 244 240 235 232 229 227 226 224 222 223 223 225 225 222 220 215 214 214 212 210 208 206 206 206 206 204 203 203 203 202 200 197 196 196 196 195 197 198 198 201 201 198 200 202 204 207 208 211 208 200 198 193 199 213 212 210 225 236 224 201 218 287 322 324 328 334 334 333
304 300 296 292 288 284 280 276 273 270 267 265 263 262 260 257 252 248 245 245 245 242 238 234 230 227 226 224 222 221 221 224 224 222 221 216 213 214 213 212 209 206 206 206 207 205 203 203 202 202 200 198 197 198 199 198 199 199 198 200 199 198 199 201 203 205 207 211 209 201 201 202 208 214 207 212 229 231 225 220 235 273 300 304 313 321 323 326
306 303 299 295 291 287 283 279 275 272 268 264 261 258 257 256 254 250 245 242 242 242 239 236 232 228 225 224 223 220 219 223 224 221 221 218 214 214 213 212 209 207 205 205 206 206 204 203 202 202 200 198 198 199 200 200 201 200 199 198 197 199 200 200 202 204 206 209 208 202 202 207 210 206 200 214 224 223 227 240 251 268 284 289 299 307 313 319
307 305 302 298 294 290 286 282 278 274 270 267 262 258 255 253 252 251 247 242 239 239 239 237 234 230 226 224 222 220 219 222 222 220 221 219 215 213 213 213 210 208 206 205 206 206 205 203 202 202 200 200 199 199 200 201 201 201 200 198 196 199 200 201 202 203 205 206 209 208 204 204 205 202 203 214 223 233 247 259 264 268 272 276 288 296 303 313
307 306 303 300 296 292 288 284 281 276 271 268 264 260 256 252 249 248 247 244 239 236 237 236 234 232 228 224 221 219 220 221 220 220 220 220 216 213 212 213 211 209 207 205 205 205 205 204 203 203 202 202 201 200 201 203 202 201 202 200 198 199 199 200 201 202 205 205 209 214 210 208 209 211 212 213 221 239 255 262 264 266 265 266 278 286 294 306
305 305 303 301 297 293 288 284 281 277 272 268 264 260 256 253 249 246 244 243 240 236 234 234 233 232 229 225 221 219 220 220 219 219 220 220 218 214 212 212 211 209 207 205 204 205 204 204 204 204 204 203 201 201 202 204 203 202 204 203 203 201 199 199 200 201 203 205 209 215 218 219 220 221 219 222 232 239 243 250 259 264 263 262 269 277 288 300
305 306 304 301 298 294 289 284 279 276 272 268 263 259 256 253 250 246 242 241 240 237 233 231 231 231 229 226 221 219 220 219 218 218 218 219 219 216 212 210 211 209 207 205 204 204 204 205 205 205 205 204 203 203 203 204 203 203 205 205 204 202 201 200 200 201 202 203 209 215 220 221 220 223 223 226 236 237 237 244 254 260 260 261 266 273 284 294
307 308 307 305 301 296 291 285 279 274 270 266 262 258 255 252 250 247 243 240 238 237 234 230 229 229 228 226 221 220 220 219 218 217 217 218 218 217 214 210 209 209 208 206 204 204 204 205 205 206 206 205 204 204 203 203 204 204 205 205 204 202 202 202 201 201 201 202 206 210 215 216 212 217 222 220 216 217 228 239 248 257 262 260 262 271 281 289
311 312 311 309 305 299 293 286 279 273 268 263 259 256 253 250 248 246 244 240 237 236 234 230 227 227 227 225 222 221 219 218 218 217 217 217 217 217 215 211 208 208 208 206 205 204 205 205 205 207 207 206 206 205 203 203 205 205 205 205 205 203 202 202 201 202 202 203 206 208 213 215 211 214 221 223 219 220 232 239 246 256 261 259 261 270 278 284
316 316 315 312 308 302 295 288 280 272 266 261 256 253 251 248 246 244 243 241 238 235 234 231 227 225 225 224 222 221 218 217 216 216 216 216 216 216 216 213 208 207 208 206 205 205 205 205 206 208 208 208 208 205 203 205 207 207 206 206 206 205 203 202 202 204 204 205 208 210 213 215 212 216 220 224 228 231 234 233 241 253 256 257 264 271 274 277
321 320 319 316 311 305 297 288 280 272 265 260 255 251 249 246 245 243 242 241 238 235 234 232 228 225 223 222 222 222 219 217 216 216 216 215 215 215 216 214 210 207 206 206 206 206 206 205 206 208 208 210 209 206 206 208 208 208 207 208 207 205 204 203 203 205 205 206 208 209 212 214 214 219 224 225 226 227 228 221 229 247 248 252 266 271 269 271
326 325 324 320 314 307 298 288 279 271 264 259 255 251 248 246 244 242 240 240 238 236 234 232 229 225 222 222 222 222 220 218 217 216 215 215 214 214 214 214 212 208 206 207 207 206 206 206 207 208 209 211 209 208 209 209 210 209 208 209 208 206 205 204 204 205 206 207 208 208 210 211 209 216 222 222 217 217 219 214 219 239 245 253 265 263 261 268
331 330 327 324 318 310 300 290 279 270 263 259 255 252 249 246 244 242 240 238 237 236 234 233 230 225 222 220 220 220 219 217 217 216 215 215 214 214 214 214 213 210 207 207 207 206 206 206 207 208 208 210 209 209 210 211 211 210 209 209 208 207 206 206 206 206 207 208 209 209 210 210 209 217 223 220 215 213 214 214 218 229 242 255 258 250 254 268
333 332 330 326 320 312 303 292 281 271 264 258 255 252 250 247 244 242 240 238 236 235 234 233 230 227 223 220 220 219 218 217 216 214 214 214 214 214 213 213 213 212 209 208 207 206 206 207 208 208 209 209 208 208 209 210 212 212 212 212 210 209 208 207 207 208 208 208 209 208 208 210 211 218 225 224 221 219 217 218 216 219 232 244 248 252 257 262
334 332 330 327 321 314 304 294 283 274 265 259 254 250 249 247 244 242 240 238 236 235 233 232 231 228 224 221 219 219 218 218 217 214 213 213 214 213 213 212 213 212 211 209 207 207 206 207 208 209 209 210 209 209 210 210 211 213 214 215 214 214 211 210 210 210 209 208 209 209 208 211 212 215 223 225 224 222 223 224 218 221 232 233 239 253 255 257
334 333 331 327 322 314 306 296 285 276 268 260 255 250 246 244 243 241 239 237 236 235 233 231 230 228 224 220 218 217 216 216 216 214 213 213 213 213 212 212 212 212 212 210 208 207 206 207 208 210 210 210 210 210 210 210 211 213 215 216 216 216 214 213 213 213 211 209 211 212 210 211 214 217 221 224 225 224 228 229 223 224 232 234 241 248 249 253
334 333 331 326 321 315 307 299 289 279 271 263 258 252 247 244 241 240 239 237 235 234 232 230 229 227 224 220 218 218 217 216 215 214 213 213 212 212 212 212 212 212 212 211 209 208 207 207 208 209 210 210 210 211 211 210 211 213 214 215 217 216 215 215 215 214 213 211 211 214 213 213 214 217 222 225 226 227 229 228 222 223 233 239 240 240 243 249
334 333 330 326 321 315 308 301 293 284 276 268 262 257 251 246 242 239 238 237 236 234 232 230 228 226 224 221 219 218 216 216 216 215 214 213 212 212 212 211 211 211 212 211 210 209 208 208 209 209 210 210 211 212 211 209 211 213 214 215 216 216 216 216 215 215 215 214 213 214 216 216 216 218 222 225 225 227 230 227 226 232 239 238 231 231 239 242
335 333 330 326 321 316 310 303 296 289 282 276 269 263 257 251 246 242 239 237 236 235 233 231 229 226 224 221 219 218 216 215 214 214 216 214 212 212 212 211 211 211 211 211 211 210 209 209 210 209 210 210 211 212 211 209 211 213 214 215 215 215 216 217 215 215 217 216 216 216 216 217 218 219 221 223 222 225 229 230 233 236 237 234 230 234 240 241
335 334 330 325 321 317 311 304 298 293 288 283 278 273 266 258 251 245 241 238 237 236 234 232 230 227 224 222 220 219 217 215 213 213 215 214 213 213 213 212 211 211 211 211 211 211 211 211 211 210 210 210 212 213 211 211 213 214 214 216 216 215 216 217 217 218 218 218 218 218 217 217 219 220 222 222 221 224 228 231 234 235 237 238 236 240 243 244
335 334 330 326 322 317 311 306 302 298 295 292 287 280 273 265 256 247 241 237 235 235 234 233 231 229 226 223 220 219 217 214 213 212 213 214 212 213 213 213 212 211 210 210 210 211 212 212 211 210 210 210 212 212 211 212 214 214 214 217 217 216 217 217 217 219 220 220 220 220 218 218 220 221 223 224 224 226 225 223 227 233 237 241 242 243 245 249
335 334 331 326 323 318 313 310 308 305 303 300 294 285 275 266 258 248 240 235 232 231 231 232 231 230 229 225 222 221 218 215 214 213 213 213 212 213 213 212 212 212 211 210 210 211 212 212 211 211 210 210 211 212 212 214 215 215 215 216 217 216 217 217 217 218 219 221 222 222 222 221 221 222 223 225 225 226 223 220 222 225 228 235 239 242 246 252
336 335 331 327 324 320 316 315 314 313 312 308 301 289 277 266 256 247 240 234 229 226 226 227 228 228 228 227 224 222 220 217 214 213 214 213 213 213 212 212 213 212 211 211 211 212 213 212 212 212 211 210 212 211 211 214 215 215 215 216 217 216 218 218 218 218 219 220 221 222 224 223 223 224 224 225 225 226 226 225 226 225 226 232 237 240 246 252
336 335 332 328 325 322 320 320 320 321 320 317 310 298 281 266 255 246 240 233 227 223 221 222 224 225 226 226 225 222 220 218 215 214 214 214 213 214 213 212 212 212 212 212 212 213 214 213 212 213 212 211 212 211 211 214 215 215 215 215 216 216 218 219 219 221 222 222 222 223 224 224 224 225 226 226 227 227 228 228 228 228 230 235 239 241 244 251
336 335 333 329 326 325 325 325 326 327 327 325 318 307 289 271 257 246 238 232 226 222 218 217 219 221 223 225 224 222 220 218 215 214 214 213 213 214 214 213 212 212 212 212 212 214 214 212 213 213 213 212 213 212 211 214 215 215 215 215 215 216 218 218 218 221 222 222 224 224 224 224 223 225 227 227 228 229 230 230 230 230 232 236 240 241 243 247
336 335 334 331 328 328 329 330 332 332 333 331 327 319 303 280 259 246 238 231 226 222 218 215 215 217 219 221 222 223 221 217 215 215 215 213 212 213 213 214 213 213 212 211 212 213 213 211 211 213 214 214 214 213 213 215 216 215 215 215 215 216 217 218 218 220 221 220 222 223 224 224 223 223 225 227 227 228 230 231 231 231 233 236 239 241 241 240
335 336 335 333 331 332 333 335 335 336 338 338 336 330 314 285 260 249 239 232 227 222 218 214 213 213 215 216 219 221 220 217 215 215 215 214 212 211 212 213 213 213 213 212 212 212 212 211 211 212 214 214 214 213 214 216 216 216 216 215 215 215 215 217 218 219 220 220 221 223 224 223 224 225 226 227 228 228 229 231 231 232 234 236 237 238 237 236
335 336 336 333 334 336 337 337 337 339 341 343 343 336 318 295 270 254 243 234 228 223 218 214 212 211 212 213 215 217 218 216 214 214 215 215 212 211 211 212 212 213 214 213 212 213 212 210 210 212 213 213 213 213 214 216 216 216 217 216 217 216 215 216 218 219 220 220 222 224 224 223 224 226 227 228 228 228 229 230 231 233 234 236 237 236 235 234
334 335 336 336 337 339 339 338 340 343 345 347 347 339 326 317 291 261 246 236 228 223 217 214 212 211 210 211 212 213 215 216 213 212 214 214 213 212 210 210 211 213 213 213 214 215 213 211 210 212 213 213 213 214 213 214 215 216 217 217 217 217 215 216 217 219 220 220 222 224 223 223 223 225 226 227 229 229 230 230 231 232 234 236 237 236 235 234
334 334 336 338 339 340 341 341 344 346 348 349 347 340 335 332 313 275 249 235 228 223 217 213 211 210 210 210 211 211 212 213 212 213 214 214 215 214 212 211 211 213 213 213 214 215 214 214 212 211 212 212 213 214 213 213 214 215 215 216 217 217 216 216 217 219 221 221 223 224 223 223 223 224 225 227 229 230 230 231 231 231 232 234 237 237 236 235
333 332 334 338 340 342 343 344 347 349 351 351 347 345 344 337 321 294 260 236 226 222 217 214 211 210 209 209 210 210 210 210 209 211 213 214 216 216 214 213 213 213 213 214 215 214 214 215 214 213 214 213 213 214 213 214 215 215 215 216 218 220 218 217 217 219 221 222 223 224 223 223 224 225 225 226 228 229 229 231 231 231 232 232 234 235 235 236
333 331 334 339 341 343 343 345 349 353 354 353 350 348 345 336 323 304 277 246 229 221 217 214 211 210 208 207 208 209 209 209 208 209 211 212 213 214 213 213 213 213 213 214 216 215 214 215 214 214 216 215 214 215 214 215 216 216 216 217 220 222 221 220 219 219 220 222 223 223 223 224 225 225 225 226 228 228 229 230 230 231 231 232 233 234 234 235
332 330 335 340 341 342 344 346 351 355 356 355 352 348 343 336 326 308 288 262 238 224 217 214 212 210 208 207 207 207 207 208 208 209 211 210 210 210 210 211 212 213 214 215 216 216 216 215 213 214 217 216 216 216 215 215 216 215 215 216 218 220 221 221 221 221 221 222 222 222 222 224 225 224 225 226 226 226 227 229 230 231 232 232 233 234 235 236
331 330 335 340 340 342 345 349 354 356 357 356 355 351 347 341 331 312 293 272 248 230 219 213 211 211 209 206 206 206 206 207 208 210 212 211 210 209 208 209 210 212 213 214 216 216 216 215 214 213 216 217 217 217 216 216 216 215 214 215 217 219 220 220 220 221 221 222 223 222 221 221 223 223 223 225 225 226 227 229 229 230 231 232 234 234 235 236
330 331 336 340 340 342 346 351 355 357 358 357 356 354 352 347 336 318 296 276 253 237 224 214 211 211 211 208 206 206 207 207 208 210 213 213 211 209 207 208 209 211 212 213 215 216 215 215 214 213 215 216 216 217 217 216 217 217 216 216 218 219 221 220 220 221 221 222 224 224 221 220 222 223 223 224 224 225 228 228 228 230 231 231 233 234 235 236
328 330 336 340 340 343 347 352 356 358 359 359 357 356 356 352 342 325 301 279 257 241 228 219 212 210 212 210 207 206 207 209 210 211 213 214 213 210 208 209 210 211 212 213 215 215 215 215 215 214 216 218 217 217 217 217 218 217 216 216 217 219 221 221 220 221 220 221 223 224 223 222 224 225 224 223 223 225 227 228 228 229 230 231 232 233 234 235
327 329 336 340 341 344 348 353 356 357 358 0 360 358 357 355 348 333 308 280 258 243 231 222 214 210 210 210 209 207 206 208 210 211 213 214 214 212 210 210 211 212 213 214 215 215 215 216 216 215 216 218 218 218 218 219 218 218 217 216 216 218 221 221 222 223 222 223 224 224 224 224 225 226 226 224 224 226 228 229 228 229 230 232 232 233 233 234
326 329 336 340 341 345 349 353 356 357 357 0 2 0 357 356 353 342 318 285 259 243 231 223 217 212 210 209 209 209 208 207 209 211 213 214 214 213 212 211 212 213 214 215 215 214 215 216 217 216 216 217 218 218 218 218 218 218 218 217 217 218 220 221 222 223 224 226 228 228 227 226 226 226 227 227 227 228 230 230 230 230 231 232 233 234 234 235
325 330 337 339 341 345 349 352 356 357 357 358 2 3 360 356 355 350 333 299 265 245 233 224 219 215 212 209 209 210 210 210 210 210 211 213 214 214 214 213 214 214 215 216 215 215 215 215 216 217 216 217 218 218 219 219 219 219 218 218 219 219 220 222 221 221 223 226 228 229 228 228 228 228 228 228 228 229 230 231 231 231 231 232 233 234 235 236
324 331 337 338 340 344 348 352 356 357 357 357 359 2 3 359 356 354 347 322 274 247 234 227 221 217 214 212 210 210 211 213 213 212 211 212 213 214 215 215 215 216 217 217 216 215 216 217 217 217 216 217 218 219 219 220 220 220 220 220 219 219 220 221 221 221 222 225 227 227 227 228 228 229 229 228 228 229 230 231 231 231 231 232 232 233 234 235
324 331 336 336 339 345 349 352 356 356 356 357 357 358 1 2 359 357 355 344 302 253 235 227 223 219 215 213 211 211 211 213 214 214 214 213 212 213 215 215 216 216 217 218 218 217 217 217 217 217 217 217 217 218 219 219 220 220 221 221 220 219 220 220 220 221 222 224 226 227 227 227 228 229 230 229 229 229 229 230 231 231 231 232 232 233 234 235
324 332 335 335 339 346 348 351 354 355 355 356 357 356 356 359 0 1 0 355 337 282 237 227 224 221 217 214 212 212 213 213 214 214 214 214 213 212 214 215 216 217 217 218 219 218 218 218 218 218 218 218 219 219 220 220 220 221 222 222 221 222 223 222 221 222 222 223 225 227 227 227 227 228 229 230 230 231 231 231 231 231 231 232 233 234 234 235
325 332 334 333 339 347 348 349 353 355 354 355 356 354 354 355 357 359 2 3 356 331 259 227 222 221 219 214 213 214 215 214 214 215 215 215 214 213 213 215 216 217 218 218 218 219 220 220 219 219 219 220 220 221 222 222 222 222 223 222 222 223 224 223 223 223 223 224 225 226 227 227 227 227 227 228 229 231 232 232 232 232 232 232 232 233 234 234
325 332 332 331 337 346 347 348 353 354 353 354 354 354 353 353 354 355 358 5 6 356 321 249 222 218 219 217 215 217 218 216 215 216 216 216 215 214 214 215 216 217 218 218 218 219 220 221 221 220 220 220 220 221 222 222 222 223 223 222 222 223 224 224 224 224 224 224 225 226 226 227 226 227 227 228 228 229 231 232 233 233 233 233 232 233 233 234
323 330 331 328 336 345 346 348 352 353 352 352 353 352 352 351 352 353 354 358 5 8 357 310 243 220 217 218 217 218 219 218 217 217 218 217 216 216 215 215 216 217 218 219 220 220 220 220 221 222 222 221 221 221 222 222 223 223 223 222 222 223 224 224 224 224 224 224 225 226 227 227 227 227 227 227 228 229 230 231 232 233 233 234 233 233 233 234